Regional Weather Roundup
Issued by NWS Kansas City/Pleasant Hill, MO

Home | Current Version | Previous Version | Graphics & Text | Print | Product List | Glossary Off
Versions: 1 2 3 4 5 6 7 8 9 10 11 12 13 14 15 16 17 18 19 20 21 22 23 24 25 26 27 28 29 30 31 32 33 34 35 36 37 38 39 40 41 42 43 44 45 46 47 48 49 50

000
ASUS43 KEAX 210504
RWREAX

WEATHER ROUNDUP FOR EASTERN KANSAS AND NORTHWEST MISSOURI
NATIONAL WEATHER SERVICE KANSAS CITY/PLEASANT HILL MO
1200 AM CDT TUE OCT 21 2014

KSZ040-057-103>105-MOZ028-029-037-043-210600-
...KANSAS CITY METROPOLITAN AREA...

CITY           SKY/WX    TMP DP  RH WIND       PRES   REMARKS
K.C. INTL      CLEAR     60  40  47 CALM      30.07S
K.C. DOWNTOWN  CLEAR     52  48  86 CALM      30.07S
LEES SUMMIT    CLEAR     52  45  77 SW3       30.08S
OLATHE - IXD   CLEAR     52  44  74 CALM      30.08S
OLATHE - OJC   CLEAR     52  45  77 SW5       30.07S
LAWRENCE       CLEAR     42  40  92 CALM      30.08S

$$

MOZ001>008-011>017-020>025-030>033-038>040-044>046-053-054-210600-
...NORTHERN AND CENTRAL MISSOURI...

CITY           SKY/WX    TMP DP  RH WIND       PRES   REMARKS
ST. JOSEPH     CLEAR     44  42  93 CALM      30.07F
MOSBY          CLEAR     45  45 100 CALM      30.07S FOG
WHITEMAN AFB   CLEAR     47  45  90 CALM      30.06F
CLINTON        CLEAR     48  46  93 CALM      30.07F
SEDALIA        CLEAR     53  45  74 CALM      30.08S
WARSAW         NOT AVBL
MARSHALL       CLEAR     52  48  87 CALM      30.08R
CHILLICOTHE      N/A     46  44  93 CALM      30.07S
MOBERLY        CLEAR     52  41  66 CALM      30.05F
KIRKSVILLE     CLEAR     45  44  97 W5        30.05F

$$

MOZ041-047>049-056>058-063>065-088>090-097-210600-
...EASTERN AND SOUTHERN MISSOURI...

CITY           SKY/WX    TMP DP  RH WIND       PRES   REMARKS
ST. LOUIS INTL CLEAR     53  46  77 CALM      30.02F
SPIRIT OF STL  CLEAR     46  44  93 CALM      30.02F
COLUMBIA       CLEAR     56  43  61 N3        30.05F
JEFFERSON CITY CLEAR     48  44  86 CALM      30.06S
MEXICO         CLEAR    N/A N/A N/A W6        30.04F
ROLLA          CLEAR     48  41  76 CALM      30.04F
LEBANON        CLEAR     52  48  87 CALM      30.08S
OSAGE BEACH    CLEAR     46  45  93 CALM      30.07S
SPRINGFIELD    CLEAR     50  49  96 CALM      30.07S FOG
BRANSON        CLEAR     57  55  94 CALM      30.08F
NEVADA         CLEAR     52  48  87 CALM      30.09R
JOPLIN         CLEAR     53  53 100 S3        30.08F
WEST PLAINS    CLEAR     52  48  86 CALM      30.07S

$$

IAZ060-094-KSZ022-034>040-054-083-096-NEZ052-066-093-210600-
...KANSAS...SOUTHEAST NEBRASKA AND IOWA...

CITY           SKY/WX    TMP DP  RH WIND       PRES   REMARKS
TOPEKA         CLEAR     48  44  86 CALM      30.08F
MANHATTAN      CLEAR     44  42  93 CALM      30.08S
EMPORIA        CLEAR     53  46  77 CALM      30.07F
CHANUTE        CLEAR     51  49  92 CALM      30.07F
WICHITA        CLEAR     56  47  71 CALM      30.07F
OMAHA          CLEAR     47  43  86 CALM      30.07F
LINCOLN        CLEAR     43  37  79 CALM      30.08F
FALLS CITY     CLEAR     45  39  79 CALM      30.06F
LAMONI         CLEAR     49  41  74 W6        30.06F
DES MOINES     CLEAR     52  42  69 CALM      30.05S

$$



USA.gov is the U.S. government's official web portal to all federal, state and local government web resources and services.